User: anonymous   Login
Location: Vancouver
(49.2500°N, 123.1330°W)
Time: 03:24:56
(UTC-07:00)
Language:

Iridium 21 - Orbit

View from above orbital plane
View from above orbital plane
View from above satellite
View from above satellite

Ground track
Ground track

The orbit data is extracted from the following two-line orbital elements,

1 25778U 99032B   17080.55898239 -.00000054 +00000-0 -26331-4 0  9997
2 25778 086.3920 260.5782 0002105 085.6419 274.5018 14.34214592935559
Epoch (UTC): 21 March 2017 13:24:56
Eccentricity: 0.0002105
inclination: 86.3920°
perigee height: 776 km
apogee height: 779 km
right ascension of ascending node: 260.5782°
argument of perigee: 85.6419°
revolutions per day: 14.34214592
mean anomaly at epoch: 274.5018°
orbit number at epoch: 93555

The dashed part of the orbit path shows where the satellite is in the earth's shadow,  

DLR